Regional Weather Roundup
Issued by NWS

Home | Current Version | Previous Version | Graphics & Text | Print | Product List | Glossary On
Versions: 1 2 3 4 5 6 7 8 9 10 11 12 13 14 15 16 17 18 19 20 21 22 23 24 25 26 27 28 29 30 31 32 33 34 35 36 37 38 39 40 41 42 43 44 45 46 47 48 49 50
000
ASUS43 KIND 301259
RWRIN

WEATHER ROUNDUP FOR INDIANA
NATIONAL WEATHER SERVICE INDIANAPOLIS IN
900 AM EDT WED JUL 30 2014

NOTE: "FAIR" INDICATES FEW OR NO CLOUDS BELOW 12,000 FEET WITH NO
SIGNIFICANT WEATHER AND/OR OBSTRUCTIONS TO VISIBILITY.

* - STATION DOES NOT REPORT WEATHER SUCH AS PRECIPITATION OR FOG.

+ - STATION NOT QUALITY CONTROLLED BY THE NATIONAL WEATHER SERVICE.
    USE DATA WITH CAUTION...ESPECIALLY DEWPOINT AND RELATIVE
    HUMIDITY OBSERVATIONS.

INZ001>003-010>013-019-020-301400-
NORTHWEST INDIANA

CITY           SKY/WX    TMP DP  RH WIND       PRES   REMARKS
GARY /AIRPORT/ PTSUNNY   66  59  77 W7        30.04S
KNOX *+        PTSUNNY   60  57  91 CALM      30.03R
MONTICELLO +   MOSUNNY   62  60  94 CALM      30.04S
RENSSELAER +   PTSUNNY   61  61 100 W3        30.05S
VALPARAISO     PTSUNNY   63  57  81 W5        30.04S

$$

LMZ046-743>745-301400-
SOUTHERN LAKE MICHIGAN

STATION/POSITION TIME  TEMP WIND        PRES
                       AIR  DIR/SP/G
                 (UTC) (F)  (DEG/KT/KT) (MB)
MICHIGAN CITY    1200   65  260/  8/  9   N/A

$$

INZ004-005-014>016-021>024-301400-
NORTH CENTRAL INDIANA

CITY           SKY/WX    TMP DP  RH WIND       PRES   REMARKS
ELKHART        MOSUNNY   59  59 100 CALM      30.04R
GOSHEN         MOSUNNY   62  58  86 CALM      30.03R
SOUTH BEND     PTSUNNY   63  59  87 CALM      30.04S
WARSAW +       MOSUNNY   63  57  82 NW3       30.04R

$$

INZ006>009-017-018-025>027-301400-
NORTHEAST INDIANA

CITY           SKY/WX    TMP DP  RH WIND       PRES   REMARKS
ANGOLA *+      SUNNY     61  52  72 W3        30.03R
FORT WAYNE     PTSUNNY   62  58  86 W5        30.04R

$$

INZ028-029-035-036-043>045-051>053-301400-
WEST CENTRAL INDIANA

CITY           SKY/WX    TMP DP  RH WIND       PRES   REMARKS
GREENCASTLE +  SUNNY     63  57  82 CALM      30.08R
LAFAYETTE      PTSUNNY   62  60  93 W3        30.06R
TERRE HAUTE    SUNNY     64  58  80 W6        30.08R

$$

INZ030>032-037>040-046>048-054>057-064-065-301400-
CENTRAL INDIANA

CITY           SKY/WX    TMP DP  RH WIND       PRES   REMARKS
ANDERSON       MOSUNNY   63  59  88 W6        30.07
COLUMBUS       SUNNY     63  61  94 CALM      30.08R
INDIANAPOLIS   MOSUNNY   62  59  90 W7        30.06R
-EAGLE CREEK   SUNNY     63  58  83 SW3       30.06R
KOKOMO *+      PTSUNNY   63  59  88 NW7       30.05R
MT COMFORT *+  SUNNY     63 N/A N/A W5        30.07R
SHELBYVILLE    SUNNY     64  59  83 SW6       30.07R

$$

INZ033-034-041-042-049-050-058-059-301400-
EAST CENTRAL INDIANA

CITY           SKY/WX    TMP DP  RH WIND       PRES   REMARKS
MUNCIE         MOSUNNY   64  58  80 W7        30.05R

$$

INZ060-061-067>069-081>083-085>088-301400-
SOUTHWEST INDIANA

CITY           SKY/WX    TMP DP  RH WIND       PRES   REMARKS
EVANSVILLE     SUNNY     66  57  72 W6        30.11R

$$

INZ062-063-066-070>080-084-089>092-301400-
SOUTH CENTRAL AND SOUTHEAST INDIANA

CITY           SKY/WX    TMP DP  RH WIND       PRES   REMARKS
BLOOMINGTON    SUNNY     64  57  78 W5        30.09R
SEYMOUR +      SUNNY     63  46  55 CALM      30.08R

$$



USA.gov is the U.S. government's official web portal to all federal, state and local government web resources and services.